Lid_Strength_Index
8 10 12 11 9 9 9 10 11 9 9 9 9 8 6 5 5 5 5 5 5 4 3 2 2 1 1 1 1 2 2 2 1 3 2 2 2 3 2 2 1 0 1 0
9 11 10 9 9 9 10 11 11 10 9 9 9 9 6 5 5 5 5 5 5 4 4 3 2 2 2 1 1 1 2 2 2 1 2 1 1 1 2 2 2 0 -0 0
11 11 9 9 10 11 10 11 11 11 10 9 10 10 8 6 5 5 5 4 4 4 4 4 3 2 2 2 2 1 1 1 2 1 1 2 2 2 2 2 2 1 -1 -1
11 10 10 10 11 10 12 9 10 11 11 13 10 14 9 7 6 5 5 5 4 4 4 3 3 3 2 2 1 1 1 1 1 1 2 2 3 3 3 2 1 0 -0 -1
12 12 12 11 10 9 11 9 10 10 11 11 12 13 10 7 8 6 5 4 4 4 4 4 3 2 2 1 1 1 1 1 1 1 1 2 3 3 3 2 1 0 0 -0
10 9 10 10 10 9 9 10 10 10 11 14 12 12 11 9 7 6 5 4 4 4 3 3 3 2 2 1 1 1 1 1 1 1 1 2 2 3 3 2 3 2 1 0
11 11 9 8 11 9 10 11 14 15 15 15 11 11 10 7 6 5 5 4 4 4 4 3 3 3 2 2 2 1 2 2 1 1 1 1 1 1 3 3 2 2 1 1
14 15 11 9 10 11 11 11 13 17 16 14 11 13 10 7 5 5 4 4 4 4 3 3 3 3 2 2 2 1 1 2 1 1 1 1 1 1 2 2 2 2 2 1
14 13 9 9 8 9 11 12 10 13 12 14 12 10 8 7 6 6 5 4 4 3 4 3 3 3 2 2 2 2 1 1 1 1 1 1 1 1 1 0 1 1 0 1
10 14 10 9 8 8 9 8 13 12 16 18 13 12 11 9 7 7 6 5 4 4 4 3 3 3 2 2 2 1 1 1 1 1 1 1 1 0 0 0 0 0 -0 -0
9 10 10 8 10 10 10 11 10 10 12 15 16 13 8 8 7 6 5 5 4 4 4 3 3 2 2 2 2 2 1 1 1 1 1 1 1 0 0 0 0 0 -0 -0
8 10 12 10 8 7 8 10 10 13 14 12 13 12 7 6 6 5 5 4 4 3 3 3 3 3 2 2 2 2 2 2 1 1 1 1 0 0 1 1 0 -0 0 -0
8 10 14 12 10 9 10 10 10 9 10 13 15 12 7 7 6 5 5 4 4 4 3 3 3 3 3 2 2 2 2 1 1 1 1 1 1 1 1 1 0 0 0 0
8 11 11 13 11 10 12 10 9 10 13 12 12 11 9 8 7 6 5 4 4 3 3 3 3 3 3 2 2 2 2 1 1 1 1 1 1 1 1 1 0 0 0 0
8 13 11 11 10 10 11 11 10 11 10 13 11 10 9 7 7 6 5 5 4 4 4 3 3 3 2 2 2 2 2 1 1 1 1 1 1 1 1 1 0 0 0 0
8 12 11 12 10 10 11 10 9 9 10 10 9 10 6 6 6 6 5 5 5 5 4 3 3 3 3 2 2 2 2 2 1 2 2 1 1 1 1 1 1 1 1 1
11 11 12 14 11 11 13 11 10 9 9 9 11 8 7 7 6 6 6 5 5 5 5 4 3 3 2 2 2 2 2 1 2 2 2 1 1 1 1 1 1 1 1 1
10 11 11 13 13 17 10 7 8 9 8 7 8 7 6 6 5 5 4 5 5 4 4 4 4 3 3 2 2 1 1 2 2 2 2 2 1 2 1 1 1 1 1 1
8 10 13 15 14 11 10 8 9 10 9 7 7 7 6 5 5 5 4 4 4 4 3 3 3 3 3 3 3 2 2 2 2 2 2 2 2 2 2 2 1 1 1 1
7 8 12 14 16 17 10 7 6 6 11 6 6 7 6 6 9 7 4 4 4 3 3 3 3 2 2 2 2 3 2 2 2 2 2 1 1 2 2 2 1 1 1 2
13 12 14 14 15 12 8 6 6 12 11 6 6 6 6 7 6 4 4 4 3 3 3 3 2 3 3 2 2 3 2 2 2 2 1 1 1 1 1 2 4 7 10 12
12 13 14 13 15 16 7 7 10 8 6 6 6 6 6 5 5 4 4 4 4 4 4 4 4 5 6 5 2 3 4 4 2 3 5 6 6 7 7 9 11 11 13 14
13 9 11 10 11 7 6 7 5 5 6 6 6 5 5 5 5 5 4 5 6 6 6 6 6 9 9 9 8 7 8 8 9 10 11 11 12 12 11 12 12 12 13 14
8 7 9 10 7 7 6 5 5 5 5 5 5 6 6 6 6 6 7 8 8 10 9 9 10 12 13 12 12 11 10 11 11 13 14 15 14 15 14 13 13 14 14 15
7 7 8 8 6 6 6 6 5 5 4 5 6 7 7 7 7 7 8 9 9 11 11 11 12 14 15 14 14 13 12 12 14 14 15 15 16 16 17 16 15 15 15 15
6 7 9 9 7 7 7 6 6 6 6 7 8 8 8 9 9 9 10 10 12 13 13 13 14 15 15 15 15 14 13 12 14 15 14 15 15 15 16 17 18 16 16 16